• In Uzbekistan
  • List of Countries
  • For 7 days
  • Water Temperature
  • Satellite Maps
  • Weather Map
  • Weather Widgets
  • user-avatar
    Login

    Hourly Weather Ayia Napa

    Today, 21 November, Wednesday

    Time Temperature Precipitation Wind Pressure Humidity
    00:00 +21°C° 0 mm 1 mps 762 mmHg 69%
    01:00 +20°C° 0 mm 1 mps 762 mmHg 71%
    02:00 +20°C° 0 mm 1 mps 761 mmHg 73%
    03:00 +20°C° 0 mm 1 mps 761 mmHg 74%
    04:00 +20°C° 0 mm 1 mps 761 mmHg 75%
    05:00 +19°C° 0 mm 1 mps 761 mmHg 76%
    06:00 +20°C° 0 mm 1 mps 761 mmHg 73%
    07:00 +21°C° 0 mm 1 mps 761 mmHg 70%
    08:00 +21°C° 0 mm 1 mps 761 mmHg 67%
    09:00 +21°C° 0 mm 2 mps 761 mmHg 64%
    10:00 +21°C° 0 mm 2 mps 761 mmHg 60%
    11:00 +23°C° 0 mm 2 mps 761 mmHg 57%
    12:00 +23°C° 0 mm 2 mps 760 mmHg 55%
    13:00 +24°C° 0 mm 3 mps 760 mmHg 53%
    14:00 +24°C° 0 mm 3 mps 759 mmHg 51%
    15:00 +23°C° 0 mm 4 mps 759 mmHg 55%
    16:00 +22°C° 0 mm 4 mps 759 mmHg 58%
    17:00 +22°C° 0 mm 4 mps 759 mmHg 61%
    18:00 +22°C° 0 mm 4 mps 759 mmHg 63%
    19:00 +21°C° 0 mm 5 mps 759 mmHg 64%
    20:00 +21°C° 0 mm 5 mps 759 mmHg 66%
    21:00 +21°C° 0 mm 5 mps 759 mmHg 67%
    22:00 +21°C° 0 mm 5 mps 759 mmHg 68%
    23:00 +21°C° 0 mm 6 mps 759 mmHg 68%

    Tomorrow, 22 November, Thursday

    Time Temperature Precipitation Wind Pressure Humidity
    00:00 +21°C° 0.2 mm 6 mps 758 mmHg 70%
    01:00 +20°C° 0.2 mm 6 mps 758 mmHg 72%
    02:00 +20°C° 0.2 mm 6 mps 758 mmHg 74%
    03:00 +20°C° 0.2 mm 6 mps 758 mmHg 75%
    04:00 +20°C° 0.2 mm 6 mps 757 mmHg 75%
    05:00 +20°C° 0.2 mm 6 mps 757 mmHg 75%
    06:00 +20°C° 0.2 mm 5 mps 757 mmHg 72%
    07:00 +21°C° 0.2 mm 5 mps 757 mmHg 69%
    08:00 +21°C° 0.2 mm 5 mps 757 mmHg 66%
    09:00 +22°C° 0.2 mm 5 mps 757 mmHg 61%
    10:00 +23°C° 0.2 mm 6 mps 757 mmHg 57%
    11:00 +24°C° 0.2 mm 6 mps 757 mmHg 52%
    12:00 +24°C° 0.3 mm 6 mps 756 mmHg 51%
    13:00 +24°C° 0.3 mm 6 mps 756 mmHg 50%
    14:00 +25°C° 0.3 mm 5 mps 756 mmHg 49%
    15:00 +23°C° 0.2 mm 5 mps 756 mmHg 53%
    16:00 +23°C° 0.2 mm 4 mps 756 mmHg 56%
    17:00 +22°C° 0.2 mm 4 mps 756 mmHg 60%
    18:00 +21°C° 0 mm 4 mps 756 mmHg 63%
    19:00 +21°C° 0 mm 4 mps 756 mmHg 65%
    20:00 +20°C° 0 mm 3 mps 756 mmHg 67%
    21:00 +20°C° 0.2 mm 3 mps 756 mmHg 68%
    22:00 +20°C° 0.2 mm 3 mps 756 mmHg 69%
    23:00 +19°C° 0.2 mm 2 mps 756 mmHg 71%

    Day after tomorrow, 23 November, Friday

    Time Temperature Precipitation Wind Pressure Humidity
    00:00 +19°C° 0.1 mm 2 mps 756 mmHg 72%
    01:00 +19°C° 0.1 mm 2 mps 756 mmHg 73%
    02:00 +19°C° 0.1 mm 1 mps 756 mmHg 75%
    03:00 +18°C° 0 mm 2 mps 756 mmHg 76%
    04:00 +18°C° 0 mm 2 mps 756 mmHg 77%
    05:00 +18°C° 0 mm 2 mps 755 mmHg 78%
    06:00 +18°C° 0.1 mm 2 mps 756 mmHg 75%
    07:00 +19°C° 0.1 mm 2 mps 756 mmHg 73%
    08:00 +19°C° 0.1 mm 2 mps 756 mmHg 70%
    09:00 +20°C° 0.1 mm 2 mps 756 mmHg 66%
    10:00 +20°C° 0.1 mm 2 mps 757 mmHg 63%
    11:00 +21°C° 0.1 mm 2 mps 757 mmHg 59%
    12:00 +21°C° 0.1 mm 2 mps 756 mmHg 57%
    13:00 +22°C° 0.1 mm 3 mps 756 mmHg 55%
    14:00 +22°C° 0.1 mm 4 mps 756 mmHg 53%
    15:00 +21°C° 0.2 mm 4 mps 756 mmHg 58%
    16:00 +21°C° 0.2 mm 5 mps 756 mmHg 62%
    17:00 +20°C° 0.2 mm 5 mps 756 mmHg 67%
    18:00 +20°C° 0.2 mm 5 mps 756 mmHg 67%
    19:00 +20°C° 0.2 mm 5 mps 757 mmHg 67%
    20:00 +20°C° 0.2 mm 5 mps 757 mmHg 67%
    21:00 +19°C° 0.7 mm 5 mps 757 mmHg 67%
    22:00 +19°C° 0.7 mm 5 mps 757 mmHg 66%
    23:00 +19°C° 0.7 mm 5 mps 757 mmHg 66%

    24 November, Saturday

    Time Temperature Precipitation Wind Pressure Humidity
    00:00 +19°C° 0.8 mm 6 mps 757 mmHg 67%
    01:00 +19°C° 0.8 mm 6 mps 757 mmHg 69%
    02:00 +19°C° 0.8 mm 6 mps 757 mmHg 70%
    03:00 +18°C° 1.4 mm 7 mps 758 mmHg 71%
    04:00 +18°C° 1.4 mm 7 mps 758 mmHg 71%
    05:00 +18°C° 1.4 mm 7 mps 758 mmHg 72%
    06:00 +18°C° 1.3 mm 7 mps 758 mmHg 72%
    07:00 +18°C° 1.3 mm 7 mps 759 mmHg 73%
    08:00 +18°C° 1.3 mm 7 mps 759 mmHg 73%
    09:00 +19°C° 1.1 mm 6 mps 759 mmHg 71%
    10:00 +19°C° 1.1 mm 6 mps 759 mmHg 70%
    11:00 +20°C° 1.1 mm 6 mps 759 mmHg 68%
    12:00 +20°C° 1.3 mm 6 mps 759 mmHg 67%
    13:00 +20°C° 1.3 mm 6 mps 759 mmHg 66%
    14:00 +20°C° 1.3 mm 6 mps 759 mmHg 66%
    15:00 +20°C° 0.8 mm 5 mps 759 mmHg 67%
    16:00 +19°C° 0.8 mm 5 mps 759 mmHg 69%
    17:00 +19°C° 0.8 mm 5 mps 760 mmHg 71%
    18:00 +19°C° 0.9 mm 4 mps 760 mmHg 72%
    19:00 +19°C° 0.9 mm 4 mps 760 mmHg 73%
    20:00 +18°C° 0.9 mm 3 mps 761 mmHg 74%
    21:00 +18°C° 0.7 mm 3 mps 761 mmHg 74%
    22:00 +18°C° 0.7 mm 3 mps 761 mmHg 74%
    23:00 +18°C° 0.7 mm 3 mps 761 mmHg 74%

    25 November, Sunday

    Time Temperature Precipitation Wind Pressure Humidity
    00:00 +18°C° 0.2 mm 3 mps 761 mmHg 73%
    01:00 +18°C° 0.2 mm 3 mps 760 mmHg 73%
    02:00 +18°C° 0.2 mm 4 mps 760 mmHg 73%
    03:00 +18°C° 0 mm 4 mps 760 mmHg 73%
    04:00 +18°C° 0 mm 4 mps 760 mmHg 73%
    05:00 +18°C° 0 mm 4 mps 760 mmHg 73%
    06:00 +18°C° 0 mm 3 mps 760 mmHg 71%
    07:00 +18°C° 0 mm 3 mps 760 mmHg 70%
    08:00 +19°C° 0 mm 3 mps 761 mmHg 68%
    09:00 +19°C° 0 mm 3 mps 760 mmHg 65%
    10:00 +20°C° 0 mm 3 mps 760 mmHg 62%
    11:00 +20°C° 0 mm 2 mps 760 mmHg 59%
    12:00 +20°C° 0 mm 2 mps 760 mmHg 56%
    13:00 +21°C° 0 mm 2 mps 759 mmHg 54%
    14:00 +21°C° 0 mm 2 mps 759 mmHg 51%
    15:00 +21°C° 0 mm 2 mps 759 mmHg 54%
    16:00 +21°C° 0 mm 2 mps 759 mmHg 56%
    17:00 +20°C° 0 mm 2 mps 759 mmHg 58%
    18:00 +20°C° 0 mm 2 mps 760 mmHg 61%
    19:00 +20°C° 0 mm 2 mps 760 mmHg 63%
    20:00 +19°C° 0 mm 3 mps 760 mmHg 65%
    21:00 +19°C° 0.1 mm 2 mps 760 mmHg 66%
    22:00 +18°C° 0.1 mm 2 mps 760 mmHg 67%
    23:00 +18°C° 0.1 mm 2 mps 760 mmHg 68%

    26 November, Monday

    Time Temperature Precipitation Wind Pressure Humidity
    00:00 +18°C° 0 mm 2 mps 760 mmHg 68%
    01:00 +18°C° 0 mm 2 mps 760 mmHg 69%
    02:00 +17°C° 0 mm 2 mps 759 mmHg 70%
    03:00 +17°C° 0 mm 2 mps 759 mmHg 71%
    04:00 +17°C° 0 mm 3 mps 759 mmHg 71%
    05:00 +17°C° 0 mm 3 mps 759 mmHg 72%
    06:00 +17°C° 0 mm 3 mps 760 mmHg 69%
    07:00 +18°C° 0 mm 2 mps 760 mmHg 67%
    08:00 +18°C° 0 mm 2 mps 760 mmHg 65%
    09:00 +19°C° 0 mm 2 mps 760 mmHg 62%
    10:00 +19°C° 0 mm 2 mps 760 mmHg 60%
    11:00 +20°C° 0 mm 3 mps 760 mmHg 57%
    12:00 +20°C° 0 mm 3 mps 760 mmHg 57%
    13:00 +20°C° 0 mm 3 mps 760 mmHg 56%
    14:00 +21°C° 0 mm 3 mps 759 mmHg 56%
    15:00 +20°C° 0 mm 3 mps 760 mmHg 58%
    16:00 +20°C° 0 mm 3 mps 760 mmHg 60%
    17:00 +20°C° 0 mm 3 mps 760 mmHg 62%
    18:00 +20°C° 0 mm 3 mps 760 mmHg 64%
    19:00 +19°C° 0 mm 3 mps 760 mmHg 66%
    20:00 +19°C° 0 mm 3 mps 760 mmHg 68%
    21:00 +19°C° 0 mm 3 mps 760 mmHg 68%
    22:00 +19°C° 0 mm 3 mps 760 mmHg 68%
    23:00 +19°C° 0 mm 4 mps 760 mmHg 68%
    Show more